{"data":{"norad_id":40534,"intl_designator":"2015-013A","name":"GPS BIIF-9  (PRN 26)","alt_names":[],"object_type":"PAYLOAD","status":"ACTIVE","operator":null,"country":"US","launch_date":"2015-03-25","launch_site_code":"AFETR","launch_vehicle":null,"mission":null,"orbit_class":"UNKNOWN","rcs_meters":30.7354,"size_class":null,"mass_kg":null,"dimensions":null,"purposes":["earth_obs","nav"],"wikipedia_slug":null,"has_3d_model":false,"image_url":null,"decayed_at":null,"tle_current":{"epoch":"2026-05-24T15:04:26.364288Z","epoch_age_seconds":107237,"freshness":"FRESH","line1":"1 40534U 15013A   26144.62808292  .00000007  00000+0  00000+0 0  9995","line2":"2 40534  53.1699 205.1520 0109123  40.0333 320.8330  2.00552773 81352","mean_motion":2.00552773,"eccentricity":0.0109123,"inclination_deg":53.1699,"raan_deg":205.152,"arg_perigee_deg":40.0333,"mean_anomaly_deg":320.833,"bstar":0,"rev_number":8135,"period_min":718.01550208433,"perigee_km":19893.322164473,"apogee_km":20473.012001563,"semimajor_km":26561.304083018,"source":"CELESTRAK","updated_at":"2026-05-25T13:38:23.760900Z"}}}